Time,TemperatureF,DewpointF,PressureIn,WindDirection,WindDirectionDegrees,WindSpeedMPH,WindSpeedGustMPH,Humidity,HourlyPrecipIn,Conditions,Clouds,dailyrainin,SoftwareType,DateUTC
2013-01-25 00:00:00,11.7,-2.9,30.43,East,90,1.0,2.0,51,0.00,,,0.00,meteohub,2013-01-25 05:00:00,
2013-01-25 00:01:00,11.7,-2.9,30.43,East,90,1.0,2.0,51,0.00,,,0.00,meteohub,2013-01-25 05:01:00,
2013-01-25 00:03:00,11.7,-2.9,30.43,East,90,0.0,2.0,51,0.00,,,0.00,meteohub,2013-01-25 05:03:00,
2013-01-25 00:05:00,11.8,-2.7,30.43,East,90,2.0,2.0,51,0.00,,,0.00,meteohub,2013-01-25 05:05:00,
2013-01-25 00:10:00,11.8,-2.7,30.42,East,90,2.0,2.0,51,0.00,,,0.00,meteohub,2013-01-25 05:10:00,
2013-01-25 00:16:00,11.8,-2.7,30.42,East,90,1.0,2.0,51,0.00,,,0.00,meteohub,2013-01-25 05:16:00,
2013-01-25 00:21:00,11.8,-2.7,30.42,East,90,0.0,2.0,51,0.00,,,0.00,meteohub,2013-01-25 05:21:00,
2013-01-25 00:26:00,12.0,-2.6,30.42,East,90,2.0,2.0,51,0.00,,,0.00,meteohub,2013-01-25 05:26:00,
2013-01-25 00:31:00,12.0,-2.6,30.42,East,90,1.0,2.0,51,0.00,,,0.00,meteohub,2013-01-25 05:31:00,
2013-01-25 00:36:00,12.0,-2.6,30.41,East,90,2.0,2.0,51,0.00,,,0.00,meteohub,2013-01-25 05:36:00,
2013-01-25 00:41:00,12.2,-2.9,30.41,East,90,2.0,2.0,50,0.00,,,0.00,meteohub,2013-01-25 05:41:00,
2013-01-25 00:46:00,12.2,-2.9,30.40,East,90,1.0,2.0,50,0.00,,,0.00,meteohub,2013-01-25 05:46:00,
2013-01-25 00:52:00,12.2,-2.9,30.40,East,90,0.0,2.0,50,0.00,,,0.00,meteohub,2013-01-25 05:52:00,
2013-01-25 00:57:00,12.2,-2.6,30.40,East,90,0.0,2.0,51,0.00,,,0.00,meteohub,2013-01-25 05:57:00,
2013-01-25 01:02:00,12.2,-2.6,30.40,East,90,0.0,1.0,51,0.00,,,0.00,meteohub,2013-01-25 06:02:00,
2013-01-25 01:07:00,12.2,-2.6,30.39,East,90,0.0,0.0,51,0.00,,,0.00,meteohub,2013-01-25 06:07:00,
2013-01-25 01:12:00,12.4,-2.4,30.38,East,90,0.0,0.0,51,0.00,,,0.00,meteohub,2013-01-25 06:12:00,
2013-01-25 01:17:00,12.4,-2.4,30.39,East,90,0.0,0.0,51,0.00,,,0.00,meteohub,2013-01-25 06:17:00,
2013-01-25 01:22:00,12.4,-2.4,30.39,East,90,0.0,0.0,51,0.00,,,0.00,meteohub,2013-01-25 06:22:00,
2013-01-25 01:27:00,12.6,-2.2,30.39,East,90,0.0,0.0,51,0.00,,,0.00,meteohub,2013-01-25 06:27:00,
2013-01-25 01:32:00,12.6,-2.2,30.39,East,90,0.0,0.0,51,0.00,,,0.00,meteohub,2013-01-25 06:32:00,
2013-01-25 01:37:00,12.7,-2.0,30.39,South,180,0.0,0.0,51,0.00,,,0.00,meteohub,2013-01-25 06:37:00,
2013-01-25 01:42:00,12.7,-2.0,30.40,SW,225,0.0,0.0,51,0.00,,,0.00,meteohub,2013-01-25 06:42:00,
2013-01-25 01:47:00,12.9,-1.8,30.39,East,90,0.0,0.0,51,0.00,,,0.00,meteohub,2013-01-25 06:47:00,
2013-01-25 01:52:00,13.1,-1.3,30.39,NNE,23,0.0,0.0,52,0.00,,,0.00,meteohub,2013-01-25 06:52:00,
2013-01-25 01:57:00,13.3,-1.1,30.38,South,180,0.0,0.0,52,0.00,,,0.00,meteohub,2013-01-25 06:57:00,
2013-01-25 02:02:00,13.5,-0.9,30.38,NW,315,0.0,0.0,52,0.00,,,0.00,meteohub,2013-01-25 07:02:00,
2013-01-25 02:07:00,13.5,-1.3,30.38,NE,45,0.0,0.0,51,0.00,,,0.00,meteohub,2013-01-25 07:07:00,
2013-01-25 02:12:00,13.5,-1.3,30.38,East,90,1.0,0.0,51,0.00,,,0.00,meteohub,2013-01-25 07:12:00,
2013-01-25 02:17:00,13.6,-0.8,30.38,South,180,2.0,2.0,52,0.00,,,0.00,meteohub,2013-01-25 07:17:00,
2013-01-25 02:22:00,13.6,-0.8,30.37,SW,225,1.0,3.0,52,0.00,,,0.00,meteohub,2013-01-25 07:22:00,
2013-01-25 02:27:00,13.6,-0.8,30.36,East,90,2.0,3.0,52,0.00,,,0.00,meteohub,2013-01-25 07:27:00,
2013-01-25 02:32:00,13.6,-0.8,30.36,NE,45,2.0,3.0,52,0.00,,,0.00,meteohub,2013-01-25 07:32:00,
2013-01-25 02:37:00,13.6,-0.8,30.36,SE,135,2.0,3.0,52,0.00,,,0.00,meteohub,2013-01-25 07:37:00,
2013-01-25 02:43:00,13.8,-0.6,30.36,East,90,2.0,3.0,52,0.00,,,0.00,meteohub,2013-01-25 07:43:00,
2013-01-25 02:48:00,13.8,-0.6,30.36,East,90,3.0,4.0,52,0.00,,,0.00,meteohub,2013-01-25 07:48:00,
2013-01-25 02:53:00,13.8,-0.2,30.36,East,90,2.0,4.0,53,0.00,,,0.00,meteohub,2013-01-25 07:53:00,
2013-01-25 02:58:00,13.8,-0.2,30.35,NE,45,3.0,3.0,53,0.00,,,0.00,meteohub,2013-01-25 07:58:00,
2013-01-25 03:03:00,13.8,-0.2,30.34,NE,45,2.0,3.0,53,0.00,,,0.00,meteohub,2013-01-25 08:03:00,
2013-01-25 03:08:00,14.0,-0.4,30.34,NW,315,2.0,3.0,52,0.00,,,0.00,meteohub,2013-01-25 08:08:00,
2013-01-25 03:14:00,14.0,-0.4,30.34,East,90,3.0,3.0,52,0.00,,,0.00,meteohub,2013-01-25 08:14:00,
2013-01-25 03:19:00,14.0,0.0,30.33,East,90,2.0,3.0,53,0.00,,,0.00,meteohub,2013-01-25 08:19:00,
2013-01-25 03:24:00,14.0,0.0,30.33,South,180,2.0,3.0,53,0.00,,,0.00,meteohub,2013-01-25 08:24:00,
2013-01-25 03:29:00,14.0,0.0,30.33,North,0,1.0,3.0,53,0.00,,,0.00,meteohub,2013-01-25 08:29:00,
2013-01-25 03:34:00,14.0,0.0,30.32,East,90,2.0,2.0,53,0.00,,,0.00,meteohub,2013-01-25 08:34:00,
2013-01-25 03:39:00,14.0,0.0,30.32,East,90,2.0,2.0,53,0.00,,,0.00,meteohub,2013-01-25 08:39:00,
2013-01-25 03:45:00,14.0,0.0,30.32,NE,45,2.0,2.0,53,0.00,,,0.00,meteohub,2013-01-25 08:45:00,
2013-01-25 03:50:00,14.2,0.1,30.32,East,90,1.0,2.0,53,0.00,,,0.00,meteohub,2013-01-25 08:50:00,
2013-01-25 03:55:00,14.2,0.1,30.32,East,90,2.0,2.0,53,0.00,,,0.00,meteohub,2013-01-25 08:55:00,
2013-01-25 04:00:00,14.2,0.1,30.32,South,180,2.0,3.0,53,0.00,,,0.00,meteohub,2013-01-25 09:00:00,
2013-01-25 04:05:00,14.2,0.1,30.31,East,90,2.0,3.0,53,0.00,,,0.00,meteohub,2013-01-25 09:05:00,
2013-01-25 04:10:00,14.2,0.1,30.31,East,90,2.0,2.0,53,0.00,,,0.00,meteohub,2013-01-25 09:10:00,
2013-01-25 04:15:00,14.2,0.1,30.31,NE,45,1.0,2.0,53,0.00,,,0.00,meteohub,2013-01-25 09:15:00,
2013-01-25 04:21:00,14.4,0.3,30.30,North,0,2.0,2.0,53,0.00,,,0.00,meteohub,2013-01-25 09:21:00,
2013-01-25 04:26:00,14.4,0.3,30.30,SW,225,1.0,2.0,53,0.00,,,0.00,meteohub,2013-01-25 09:26:00,
2013-01-25 04:31:00,14.4,0.3,30.29,East,90,1.0,2.0,53,0.00,,,0.00,meteohub,2013-01-25 09:31:00,
2013-01-25 04:36:00,14.4,0.7,30.30,ESE,113,1.0,2.0,54,0.00,,,0.00,meteohub,2013-01-25 09:36:00,
2013-01-25 04:41:00,14.4,0.7,30.29,NE,45,1.0,2.0,54,0.00,,,0.00,meteohub,2013-01-25 09:41:00,
2013-01-25 04:43:00,14.4,0.7,30.29,NE,45,1.0,2.0,54,0.00,,,0.00,meteohub,2013-01-25 09:43:00,
2013-01-25 04:47:00,14.4,0.7,30.29,SW,225,1.0,2.0,54,0.00,,,0.00,meteohub,2013-01-25 09:47:00,
2013-01-25 04:57:00,14.4,0.7,30.29,WSW,248,2.0,2.0,54,0.00,,,0.00,meteohub,2013-01-25 09:57:00,
2013-01-25 05:02:00,14.5,0.9,30.28,East,90,1.0,2.0,54,0.00,,,0.00,meteohub,2013-01-25 10:02:00,
2013-01-25 05:07:00,14.5,0.9,30.27,East,90,1.0,2.0,54,0.00,,,0.00,meteohub,2013-01-25 10:07:00,
2013-01-25 05:12:00,14.5,0.9,30.27,South,180,2.0,2.0,54,0.00,,,0.00,meteohub,2013-01-25 10:12:00,
2013-01-25 05:17:00,14.5,0.9,30.26,East,90,2.0,2.0,54,0.00,,,0.00,meteohub,2013-01-25 10:17:00,
2013-01-25 05:22:00,14.5,0.9,30.26,East,90,2.0,2.0,54,0.00,,,0.00,meteohub,2013-01-25 10:22:00,
2013-01-25 05:27:00,14.5,0.9,30.26,SW,225,1.0,2.0,54,0.00,,,0.00,meteohub,2013-01-25 10:27:00,
2013-01-25 05:32:00,14.5,0.9,30.25,East,90,2.0,2.0,54,0.00,,,0.00,meteohub,2013-01-25 10:32:00,
2013-01-25 05:37:00,14.7,1.0,30.25,SE,135,2.0,3.0,54,0.00,,,0.00,meteohub,2013-01-25 10:37:00,
2013-01-25 05:42:00,14.7,1.0,30.24,NE,45,2.0,3.0,54,0.00,,,0.00,meteohub,2013-01-25 10:42:00,
2013-01-25 05:47:00,14.7,1.0,30.24,South,180,2.0,3.0,54,0.00,,,0.00,meteohub,2013-01-25 10:47:00,
2013-01-25 05:52:00,14.7,1.0,30.23,NE,45,2.0,3.0,54,0.00,,,0.00,meteohub,2013-01-25 10:52:00,
2013-01-25 05:57:00,14.7,1.0,30.23,NE,45,2.0,3.0,54,0.00,,,0.00,meteohub,2013-01-25 10:57:00,
2013-01-25 06:03:00,14.7,1.0,30.23,SW,225,2.0,2.0,54,0.00,,,0.00,meteohub,2013-01-25 11:03:00,
2013-01-25 06:08:00,14.9,1.2,30.22,NNE,23,2.0,2.0,54,0.00,,,0.00,meteohub,2013-01-25 11:08:00,
2013-01-25 06:13:00,14.9,1.6,30.23,South,180,2.0,4.0,55,0.00,,,0.00,meteohub,2013-01-25 11:13:00,
2013-01-25 06:18:00,14.9,1.6,30.22,ESE,113,2.0,4.0,55,0.00,,,0.00,meteohub,2013-01-25 11:18:00,
2013-01-25 06:23:00,14.9,1.6,30.22,NE,45,2.0,2.0,55,0.00,,,0.00,meteohub,2013-01-25 11:23:00,
2013-01-25 06:28:00,14.9,1.6,30.22,SE,135,2.0,3.0,55,0.00,,,0.00,meteohub,2013-01-25 11:28:00,
2013-01-25 06:34:00,14.9,1.6,30.22,SW,225,2.0,4.0,55,0.00,,,0.00,meteohub,2013-01-25 11:34:00,
2013-01-25 06:39:00,14.9,1.6,30.22,SW,225,2.0,4.0,55,0.00,,,0.00,meteohub,2013-01-25 11:39:00,
2013-01-25 06:44:00,14.9,1.6,30.22,West,270,2.0,3.0,55,0.00,,,0.00,meteohub,2013-01-25 11:44:00,
2013-01-25 06:49:00,14.9,1.6,30.21,NNE,23,3.0,3.0,55,0.00,,,0.00,meteohub,2013-01-25 11:49:00,
2013-01-25 06:54:00,14.9,2.1,30.21,SW,225,2.0,3.0,56,0.00,,,0.00,meteohub,2013-01-25 11:54:00,
2013-01-25 06:59:00,14.9,2.1,30.20,SW,225,2.0,3.0,56,0.00,,,0.00,meteohub,2013-01-25 11:59:00,
2013-01-25 07:04:00,14.9,2.1,30.20,NE,45,2.0,3.0,56,0.00,,,0.00,meteohub,2013-01-25 12:04:00,
2013-01-25 07:09:00,14.7,2.3,30.20,South,180,3.0,3.0,57,0.00,,,0.00,meteohub,2013-01-25 12:09:00,
2013-01-25 07:15:00,14.5,2.5,30.20,South,180,1.0,3.0,58,0.00,,,0.00,meteohub,2013-01-25 12:15:00,
2013-01-25 07:20:00,14.5,2.8,30.19,North,0,1.0,3.0,59,0.00,,,0.00,meteohub,2013-01-25 12:20:00,
2013-01-25 07:25:00,14.5,2.8,30.19,North,0,1.0,3.0,59,0.00,,,0.00,meteohub,2013-01-25 12:25:00,
2013-01-25 07:30:00,14.5,3.2,30.19,NE,45,2.0,3.0,60,0.00,,,0.00,meteohub,2013-01-25 12:30:00,
2013-01-25 07:35:00,14.5,3.6,30.18,NE,45,2.0,2.0,61,0.00,,,0.00,meteohub,2013-01-25 12:35:00,
2013-01-25 07:40:00,14.4,3.7,30.19,SW,225,1.0,3.0,62,0.00,,,0.00,meteohub,2013-01-25 12:40:00,
2013-01-25 07:45:00,14.4,4.1,30.18,East,90,2.0,3.0,63,0.00,,,0.00,meteohub,2013-01-25 12:45:00,
2013-01-25 07:50:00,14.5,4.3,30.18,East,90,3.0,3.0,63,0.00,,,0.00,meteohub,2013-01-25 12:50:00,
2013-01-25 07:55:00,14.4,4.1,30.18,East,90,2.0,3.0,63,0.00,,,0.00,meteohub,2013-01-25 12:55:00,
2013-01-25 08:01:00,14.4,4.5,30.17,North,0,3.0,4.0,64,0.00,,,0.00,meteohub,2013-01-25 13:01:00,
2013-01-25 08:06:00,14.4,4.5,30.17,NW,315,2.0,4.0,64,0.00,,,0.00,meteohub,2013-01-25 13:06:00,
2013-01-25 08:11:00,14.4,4.5,30.17,East,90,2.0,3.0,64,0.00,,,0.00,meteohub,2013-01-25 13:11:00,
2013-01-25 08:16:00,14.5,5.0,30.17,East,90,2.0,3.0,65,0.00,,,0.00,meteohub,2013-01-25 13:16:00,
2013-01-25 08:21:00,14.5,5.0,30.17,NE,45,2.0,3.0,65,0.00,,,0.00,meteohub,2013-01-25 13:21:00,
2013-01-25 08:26:00,14.5,5.0,30.16,East,90,2.0,3.0,65,0.00,,,0.00,meteohub,2013-01-25 13:26:00,
2013-01-25 08:31:00,14.5,5.2,30.16,SE,135,2.0,3.0,66,0.00,,,0.00,meteohub,2013-01-25 13:31:00,
2013-01-25 08:36:00,14.5,5.2,30.15,NE,45,2.0,3.0,66,0.00,,,0.00,meteohub,2013-01-25 13:36:00,
2013-01-25 08:42:00,14.7,5.4,30.15,South,180,2.0,3.0,66,0.00,,,0.00,meteohub,2013-01-25 13:42:00,
2013-01-25 08:47:00,14.7,5.4,30.15,East,90,4.0,4.0,66,0.00,,,0.00,meteohub,2013-01-25 13:47:00,
2013-01-25 08:52:00,14.7,5.4,30.15,South,180,2.0,4.0,66,0.00,,,0.00,meteohub,2013-01-25 13:52:00,
2013-01-25 08:57:00,14.7,5.7,30.15,NE,45,2.0,4.0,67,0.00,,,0.00,meteohub,2013-01-25 13:57:00,
2013-01-25 09:02:00,14.7,5.7,30.14,SW,225,2.0,4.0,67,0.00,,,0.00,meteohub,2013-01-25 14:02:00,
2013-01-25 09:07:00,14.9,5.9,30.14,East,90,2.0,3.0,67,0.00,,,0.00,meteohub,2013-01-25 14:07:00,
2013-01-25 09:12:00,14.9,5.9,30.14,SE,135,2.0,3.0,67,0.00,,,0.00,meteohub,2013-01-25 14:12:00,
2013-01-25 09:17:00,15.1,6.1,30.14,NE,45,2.0,3.0,67,0.00,,,0.00,meteohub,2013-01-25 14:17:00,
2013-01-25 09:22:00,15.1,6.1,30.14,East,90,4.0,4.0,67,0.00,,,0.00,meteohub,2013-01-25 14:22:00,
2013-01-25 09:27:00,15.4,6.8,30.13,East,90,3.0,4.0,68,0.00,,,0.00,meteohub,2013-01-25 14:27:00,
2013-01-25 09:32:00,15.6,7.0,30.14,NW,315,1.0,4.0,68,0.00,,,0.00,meteohub,2013-01-25 14:32:00,
2013-01-25 09:37:00,15.8,6.8,30.14,East,90,2.0,4.0,67,0.00,,,0.00,meteohub,2013-01-25 14:37:00,
2013-01-25 09:42:00,15.8,6.8,30.13,East,90,2.0,3.0,67,0.00,,,0.00,meteohub,2013-01-25 14:42:00,
2013-01-25 09:47:00,16.0,7.0,30.13,NW,315,2.0,3.0,67,0.00,,,0.00,meteohub,2013-01-25 14:47:00,
2013-01-25 09:52:00,16.2,7.2,30.13,SW,225,2.0,3.0,67,0.00,,,0.00,meteohub,2013-01-25 14:52:00,
2013-01-25 09:57:00,16.2,7.2,30.13,North,0,2.0,3.0,67,0.00,,,0.00,meteohub,2013-01-25 14:57:00,
2013-01-25 10:02:00,16.3,7.3,30.14,SW,225,2.0,3.0,67,0.00,,,0.00,meteohub,2013-01-25 15:02:00,
2013-01-25 10:07:00,16.3,7.3,30.13,NW,315,2.0,2.0,67,0.00,,,0.00,meteohub,2013-01-25 15:07:00,
2013-01-25 10:12:00,16.5,7.2,30.12,NE,45,2.0,2.0,66,0.00,,,0.00,meteohub,2013-01-25 15:12:00,
2013-01-25 10:17:00,16.7,7.3,30.12,NW,315,2.0,2.0,66,0.00,,,0.00,meteohub,2013-01-25 15:17:00,
2013-01-25 10:22:00,16.9,7.5,30.11,WSW,248,2.0,2.0,66,0.00,,,0.00,meteohub,2013-01-25 15:22:00,
2013-01-25 10:27:00,17.1,7.7,30.12,NE,45,3.0,4.0,66,0.00,,,0.00,meteohub,2013-01-25 15:27:00,
2013-01-25 10:32:00,17.2,7.9,30.11,NW,315,2.0,4.0,66,0.00,,,0.00,meteohub,2013-01-25 15:32:00,
2013-01-25 10:37:00,17.4,8.1,30.12,SW,225,1.0,4.0,66,0.00,,,0.00,meteohub,2013-01-25 15:37:00,
2013-01-25 10:43:00,17.8,8.1,30.10,NE,45,2.0,3.0,65,0.00,,,0.00,meteohub,2013-01-25 15:43:00,
2013-01-25 10:48:00,18.1,8.4,30.11,South,180,3.0,3.0,65,0.00,,,0.00,meteohub,2013-01-25 15:48:00,
2013-01-25 10:53:00,18.3,8.6,30.11,East,90,2.0,3.0,65,0.00,,,0.00,meteohub,2013-01-25 15:53:00,
2013-01-25 10:58:00,18.7,9.0,30.10,East,90,3.0,3.0,65,0.00,,,0.00,meteohub,2013-01-25 15:58:00,
2013-01-25 11:03:00,18.9,9.0,30.09,NE,45,2.0,3.0,65,0.00,,,0.00,meteohub,2013-01-25 16:03:00,
2013-01-25 11:08:00,18.9,9.0,30.10,SW,225,3.0,3.0,65,0.00,,,0.00,meteohub,2013-01-25 16:08:00,
2013-01-25 11:13:00,18.9,8.8,30.10,South,180,4.0,4.0,64,0.00,,,0.00,meteohub,2013-01-25 16:13:00,
2013-01-25 11:18:00,18.9,8.8,30.09,East,90,2.0,4.0,64,0.00,,,0.00,meteohub,2013-01-25 16:18:00,
2013-01-25 11:24:00,19.2,9.0,30.09,South,180,2.0,4.0,64,0.00,,,0.00,meteohub,2013-01-25 16:24:00,
2013-01-25 11:29:00,19.8,10.9,30.08,South,180,4.0,4.0,68,0.00,,,0.00,meteohub,2013-01-25 16:29:00,
2013-01-25 11:34:00,20.1,11.3,30.09,South,180,2.0,4.0,68,0.00,,,0.00,meteohub,2013-01-25 16:34:00,
2013-01-25 11:39:00,20.7,11.8,30.09,SE,135,4.0,4.0,68,0.00,,,0.00,meteohub,2013-01-25 16:39:00,
2013-01-25 11:44:00,20.7,11.5,30.08,SW,225,2.0,4.0,67,0.00,,,0.00,meteohub,2013-01-25 16:44:00,
2013-01-25 11:49:00,20.3,10.8,30.08,South,180,6.0,6.0,66,0.00,,,0.00,meteohub,2013-01-25 16:49:00,
2013-01-25 11:54:00,19.9,10.0,30.08,South,180,3.0,4.0,65,0.00,,,0.00,meteohub,2013-01-25 16:54:00,
2013-01-25 12:00:00,19.9,10.0,30.07,South,180,4.0,6.0,65,0.00,,,0.00,meteohub,2013-01-25 17:00:00,
2013-01-25 12:05:00,19.8,9.9,30.07,SE,135,4.0,6.0,65,0.00,,,0.00,meteohub,2013-01-25 17:05:00,
2013-01-25 12:10:00,19.8,9.9,30.06,South,180,5.0,6.0,65,0.00,,,0.00,meteohub,2013-01-25 17:10:00,
2013-01-25 12:15:00,19.8,9.9,30.06,South,180,3.0,6.0,65,0.00,,,0.00,meteohub,2013-01-25 17:15:00,
2013-01-25 12:20:00,19.6,10.0,30.06,South,180,4.0,8.0,66,0.00,,,0.00,meteohub,2013-01-25 17:20:00,
2013-01-25 12:25:00,19.6,10.0,30.05,North,0,6.0,8.0,66,0.00,,,0.00,meteohub,2013-01-25 17:25:00,
2013-01-25 12:30:00,19.6,10.0,30.04,South,180,2.0,8.0,66,0.00,,,0.00,meteohub,2013-01-25 17:30:00,
2013-01-25 12:36:00,19.8,10.6,30.04,SE,135,4.0,8.0,67,0.00,,,0.00,meteohub,2013-01-25 17:36:00,
2013-01-25 12:41:00,20.1,10.9,30.04,South,180,2.0,7.0,67,0.00,,,0.00,meteohub,2013-01-25 17:41:00,
2013-01-25 12:46:00,20.7,11.1,30.04,SW,225,3.0,7.0,66,0.00,,,0.00,meteohub,2013-01-25 17:46:00,
2013-01-25 12:51:00,21.0,11.5,30.04,South,180,2.0,7.0,66,0.00,,,0.00,meteohub,2013-01-25 17:51:00,
2013-01-25 12:56:00,21.4,11.5,30.02,SW,225,4.0,6.0,65,0.00,,,0.00,meteohub,2013-01-25 17:56:00,
2013-01-25 13:01:00,21.2,10.9,30.03,SW,225,2.0,4.0,64,0.00,,,0.00,meteohub,2013-01-25 18:01:00,
2013-01-25 13:06:00,21.2,10.9,30.02,South,180,4.0,6.0,64,0.00,,,0.00,meteohub,2013-01-25 18:06:00,
2013-01-25 13:12:00,21.2,10.6,30.01,South,180,5.0,8.0,63,0.00,,,0.00,meteohub,2013-01-25 18:12:00,
2013-01-25 13:17:00,21.0,10.4,30.01,SW,225,4.0,8.0,63,0.00,,,0.00,meteohub,2013-01-25 18:17:00,
2013-01-25 13:22:00,21.6,10.6,30.01,NE,45,4.0,8.0,62,0.00,,,0.00,meteohub,2013-01-25 18:22:00,
2013-01-25 13:27:00,21.9,10.6,30.02,SW,225,3.0,7.0,61,0.00,,,0.00,meteohub,2013-01-25 18:27:00,
2013-01-25 13:32:00,21.9,10.6,30.01,South,180,5.0,7.0,61,0.00,,,0.00,meteohub,2013-01-25 18:32:00,
2013-01-25 13:37:00,21.6,9.9,30.01,South,180,2.0,7.0,60,0.00,,,0.00,meteohub,2013-01-25 18:37:00,
2013-01-25 13:42:00,21.9,10.2,30.01,SW,225,4.0,5.0,60,0.00,,,0.00,meteohub,2013-01-25 18:42:00,
2013-01-25 13:47:00,22.1,10.4,30.01,East,90,2.0,5.0,60,0.00,,,0.00,meteohub,2013-01-25 18:47:00,
2013-01-25 13:52:00,22.1,10.4,30.00,South,180,2.0,4.0,60,0.00,,,0.00,meteohub,2013-01-25 18:52:00,
2013-01-25 13:57:00,21.7,10.0,29.99,East,90,4.0,4.0,60,0.00,,,0.00,meteohub,2013-01-25 18:57:00,
2013-01-25 14:02:00,21.7,10.0,29.99,SE,135,4.0,4.0,60,0.00,,,0.00,meteohub,2013-01-25 19:02:00,
2013-01-25 14:07:00,21.4,9.7,29.99,SW,225,5.0,5.0,60,0.00,,,0.00,meteohub,2013-01-25 19:07:00,
2013-01-25 14:12:00,21.4,9.7,29.99,SW,225,4.0,5.0,60,0.00,,,0.00,meteohub,2013-01-25 19:12:00,
2013-01-25 14:17:00,21.2,9.5,29.98,SW,225,4.0,5.0,60,0.00,,,0.00,meteohub,2013-01-25 19:17:00,
2013-01-25 14:22:00,21.0,9.7,29.98,SW,225,4.0,5.0,61,0.00,,,0.00,meteohub,2013-01-25 19:22:00,
2013-01-25 14:27:00,20.8,9.5,29.97,NE,45,4.0,8.0,61,0.00,,,0.00,meteohub,2013-01-25 19:27:00,
2013-01-25 14:32:00,20.8,9.5,29.98,SE,135,3.0,8.0,61,0.00,,,0.00,meteohub,2013-01-25 19:32:00,
2013-01-25 14:37:00,20.8,9.5,29.98,West,270,3.0,8.0,61,0.00,,,0.00,meteohub,2013-01-25 19:37:00,
2013-01-25 14:42:00,20.7,9.3,29.98,South,180,3.0,5.0,61,0.00,,,0.00,meteohub,2013-01-25 19:42:00,
2013-01-25 14:47:00,20.7,9.7,29.97,South,180,2.0,5.0,62,0.00,,,0.00,meteohub,2013-01-25 19:47:00,
2013-01-25 14:52:00,20.8,9.9,29.97,South,180,3.0,4.0,62,0.00,,,0.00,meteohub,2013-01-25 19:52:00,
2013-01-25 14:57:00,20.8,9.9,29.97,NE,45,3.0,4.0,62,0.00,,,0.00,meteohub,2013-01-25 19:57:00,
2013-01-25 15:02:00,20.8,9.9,29.97,SW,225,2.0,4.0,62,0.00,,,0.00,meteohub,2013-01-25 20:02:00,
2013-01-25 15:07:00,20.8,9.9,29.97,South,180,2.0,4.0,62,0.00,,,0.00,meteohub,2013-01-25 20:07:00,
2013-01-25 15:12:00,20.8,9.9,29.97,SW,225,2.0,4.0,62,0.00,,,0.00,meteohub,2013-01-25 20:12:00,
2013-01-25 15:17:00,20.7,9.7,29.97,South,180,4.0,4.0,62,0.00,,,0.00,meteohub,2013-01-25 20:17:00,
2013-01-25 15:22:00,20.5,9.1,29.96,SE,135,2.0,4.0,61,0.00,,,0.00,meteohub,2013-01-25 20:22:00,
2013-01-25 15:27:00,20.5,9.1,29.96,South,180,4.0,4.0,61,0.00,,,0.00,meteohub,2013-01-25 20:27:00,
2013-01-25 15:32:00,20.5,9.1,29.96,SW,225,2.0,4.0,61,0.00,,,0.00,meteohub,2013-01-25 20:32:00,
2013-01-25 15:37:00,20.5,9.1,29.96,SW,225,4.0,4.0,61,0.00,,,0.00,meteohub,2013-01-25 20:37:00,
2013-01-25 15:42:00,20.3,9.0,29.97,NNE,23,3.0,4.0,61,0.00,,,0.00,meteohub,2013-01-25 20:42:00,
2013-01-25 15:47:00,20.1,8.8,29.96,South,180,2.0,4.0,61,0.00,,,0.00,meteohub,2013-01-25 20:47:00,
2013-01-25 15:52:00,20.3,9.3,29.97,South,180,3.0,4.0,62,0.00,,,0.00,meteohub,2013-01-25 20:52:00,
2013-01-25 15:57:00,20.1,9.1,29.96,South,180,4.0,4.0,62,0.00,,,0.00,meteohub,2013-01-25 20:57:00,
2013-01-25 16:02:00,19.9,9.0,29.96,South,180,3.0,4.0,62,0.00,,,0.00,meteohub,2013-01-25 21:02:00,
2013-01-25 16:07:00,20.1,9.1,29.96,South,180,2.0,4.0,62,0.00,,,0.00,meteohub,2013-01-25 21:07:00,
2013-01-25 16:12:00,20.1,9.1,29.96,South,180,2.0,4.0,62,0.00,,,0.00,meteohub,2013-01-25 21:12:00,
2013-01-25 16:17:00,20.1,9.1,29.96,South,180,3.0,4.0,62,0.00,,,0.00,meteohub,2013-01-25 21:17:00,
2013-01-25 16:22:00,20.1,9.5,29.96,SW,225,3.0,4.0,63,0.00,,,0.00,meteohub,2013-01-25 21:22:00,
2013-01-25 16:27:00,19.9,9.3,29.96,South,180,3.0,6.0,63,0.00,,,0.00,meteohub,2013-01-25 21:27:00,
2013-01-25 16:32:00,19.8,9.1,29.96,South,180,2.0,6.0,63,0.00,,,0.00,meteohub,2013-01-25 21:32:00,
2013-01-25 16:37:00,19.8,9.5,29.95,SW,225,2.0,6.0,64,0.00,,,0.00,meteohub,2013-01-25 21:37:00,
2013-01-25 16:42:00,19.8,9.9,29.95,South,180,4.0,4.0,65,0.00,,,0.00,meteohub,2013-01-25 21:42:00,
2013-01-25 16:47:00,19.6,9.7,29.95,South,180,2.0,4.0,65,0.00,,,0.00,meteohub,2013-01-25 21:47:00,
2013-01-25 16:52:00,19.6,9.7,29.95,NE,45,2.0,4.0,65,0.00,,,0.00,meteohub,2013-01-25 21:52:00,
2013-01-25 16:57:00,19.6,9.7,29.95,South,180,4.0,4.0,65,0.00,,,0.00,meteohub,2013-01-25 21:57:00,
2013-01-25 17:02:00,19.4,9.5,29.95,North,0,2.0,4.0,65,0.00,,,0.00,meteohub,2013-01-25 22:02:00,
2013-01-25 17:07:00,19.4,9.9,29.95,South,180,2.0,4.0,66,0.00,,,0.00,meteohub,2013-01-25 22:07:00,
2013-01-25 17:12:00,19.2,8.4,29.95,South,180,2.0,4.0,62,0.00,,,0.00,meteohub,2013-01-25 22:12:00,
2013-01-25 17:17:00,19.0,8.2,29.95,South,180,3.0,4.0,62,0.00,,,0.00,meteohub,2013-01-25 22:17:00,
2013-01-25 17:22:00,19.0,8.2,29.95,SW,225,3.0,4.0,62,0.00,,,0.00,meteohub,2013-01-25 22:22:00,
2013-01-25 17:27:00,19.0,8.2,29.95,SW,225,2.0,4.0,62,0.00,,,0.00,meteohub,2013-01-25 22:27:00,
2013-01-25 17:32:00,19.0,8.2,29.96,South,180,2.0,4.0,62,0.00,,,0.00,meteohub,2013-01-25 22:32:00,
2013-01-25 17:37:00,18.9,8.1,29.96,South,180,3.0,3.0,62,0.00,,,0.00,meteohub,2013-01-25 22:37:00,
2013-01-25 17:42:00,18.9,8.1,29.96,South,180,2.0,4.0,62,0.00,,,0.00,meteohub,2013-01-25 22:42:00,
2013-01-25 17:47:00,18.9,8.1,29.96,South,180,3.0,4.0,62,0.00,,,0.00,meteohub,2013-01-25 22:47:00,
2013-01-25 17:53:00,18.7,7.9,29.96,SW,225,3.0,4.0,62,0.00,,,0.00,meteohub,2013-01-25 22:53:00,
2013-01-25 17:58:00,18.7,7.9,29.96,SW,225,3.0,4.0,62,0.00,,,0.00,meteohub,2013-01-25 22:58:00,
2013-01-25 18:03:00,18.7,7.9,29.97,South,180,2.0,3.0,62,0.00,,,0.00,meteohub,2013-01-25 23:03:00,
2013-01-25 18:08:00,18.7,8.2,29.97,SW,225,1.0,3.0,63,0.00,,,0.00,meteohub,2013-01-25 23:08:00,
2013-01-25 18:13:00,18.7,8.2,29.97,South,180,2.0,3.0,63,0.00,,,0.00,meteohub,2013-01-25 23:13:00,
2013-01-25 18:18:00,18.7,8.2,29.97,South,180,2.0,2.0,63,0.00,,,0.00,meteohub,2013-01-25 23:18:00,
2013-01-25 18:23:00,18.5,8.1,29.98,South,180,2.0,2.0,63,0.00,,,0.00,meteohub,2013-01-25 23:23:00,
2013-01-25 18:28:00,18.5,8.1,29.97,ENE,68,2.0,2.0,63,0.00,,,0.00,meteohub,2013-01-25 23:28:00,
2013-01-25 18:33:00,18.5,8.4,29.97,South,180,2.0,2.0,64,0.00,,,0.00,meteohub,2013-01-25 23:33:00,
2013-01-25 18:39:00,18.5,8.4,29.97,South,180,2.0,2.0,64,0.00,,,0.00,meteohub,2013-01-25 23:39:00,
2013-01-25 18:44:00,18.5,8.4,29.97,South,180,0.0,2.0,64,0.00,,,0.00,meteohub,2013-01-25 23:44:00,
2013-01-25 18:49:00,18.3,8.6,29.97,South,180,0.0,2.0,65,0.00,,,0.00,meteohub,2013-01-25 23:49:00,
2013-01-25 18:54:00,18.3,8.6,29.96,South,180,0.0,2.0,65,0.00,,,0.00,meteohub,2013-01-25 23:54:00,
2013-01-25 18:59:00,18.3,8.6,29.97,South,180,0.0,2.0,65,0.00,,,0.00,meteohub,2013-01-25 23:59:00,
2013-01-25 19:04:00,18.3,9.0,29.97,South,180,1.0,0.0,66,0.00,,,0.00,meteohub,2013-01-26 00:04:00,
2013-01-25 19:09:00,18.1,8.8,29.97,East,90,1.0,1.0,66,0.00,,,0.00,meteohub,2013-01-26 00:09:00,
2013-01-25 19:14:00,18.1,8.8,29.97,South,180,1.0,1.0,66,0.00,,,0.00,meteohub,2013-01-26 00:14:00,
2013-01-25 19:20:00,18.1,9.0,29.97,South,180,0.0,1.0,67,0.00,,,0.00,meteohub,2013-01-26 00:20:00,
2013-01-25 19:25:00,18.1,9.0,29.98,South,180,0.0,1.0,67,0.00,,,0.00,meteohub,2013-01-26 00:25:00,
2013-01-25 19:30:00,18.1,9.0,29.98,South,180,0.0,1.0,67,0.00,,,0.00,meteohub,2013-01-26 00:30:00,
2013-01-25 19:35:00,18.0,8.8,29.98,South,180,0.0,1.0,67,0.00,,,0.00,meteohub,2013-01-26 00:35:00,
2013-01-25 19:40:00,18.0,8.8,29.97,South,180,0.0,0.0,67,0.00,,,0.00,meteohub,2013-01-26 00:40:00,
2013-01-25 19:45:00,18.0,9.1,29.97,South,180,0.0,0.0,68,0.00,,,0.00,meteohub,2013-01-26 00:45:00,
2013-01-25 19:50:00,18.0,9.1,29.97,SW,225,0.0,0.0,68,0.00,,,0.00,meteohub,2013-01-26 00:50:00,
2013-01-25 19:55:00,18.0,9.1,29.98,NW,315,0.0,0.0,68,0.00,,,0.00,meteohub,2013-01-26 00:55:00,
2013-01-25 20:01:00,18.0,9.1,29.97,South,180,0.0,0.0,68,0.00,,,0.00,meteohub,2013-01-26 01:01:00,
2013-01-25 20:06:00,18.0,9.1,29.97,South,180,0.0,0.0,68,0.00,,,0.00,meteohub,2013-01-26 01:06:00,
2013-01-25 20:11:00,18.1,9.3,29.97,South,180,0.0,0.0,68,0.00,,,0.00,meteohub,2013-01-26 01:11:00,
2013-01-25 20:16:00,18.1,9.7,29.97,South,180,0.0,0.0,69,0.00,,,0.00,meteohub,2013-01-26 01:16:00,
2013-01-25 20:21:00,18.1,9.7,29.98,South,180,0.0,0.0,69,0.00,,,0.00,meteohub,2013-01-26 01:21:00,
2013-01-25 20:26:00,18.0,9.5,29.97,South,180,0.0,0.0,69,0.00,,,0.00,meteohub,2013-01-26 01:26:00,
2013-01-25 20:31:00,18.0,9.5,29.97,South,180,0.0,0.0,69,0.00,,,0.00,meteohub,2013-01-26 01:31:00,
2013-01-25 20:36:00,18.0,9.5,29.97,East,90,0.0,0.0,69,0.00,,,0.00,meteohub,2013-01-26 01:36:00,
2013-01-25 20:42:00,18.0,9.5,29.97,East,90,0.0,0.0,69,0.00,,,0.00,meteohub,2013-01-26 01:42:00,
2013-01-25 20:47:00,18.0,9.5,29.97,East,90,0.0,0.0,69,0.00,,,0.00,meteohub,2013-01-26 01:47:00,
2013-01-25 20:52:00,18.0,9.5,29.98,SW,225,0.0,0.0,69,0.00,,,0.00,meteohub,2013-01-26 01:52:00,
2013-01-25 20:57:00,18.0,9.5,29.98,SW,225,0.0,0.0,69,0.00,,,0.00,meteohub,2013-01-26 01:57:00,
2013-01-25 21:02:00,18.0,9.5,29.97,SW,225,0.0,0.0,69,0.00,,,0.00,meteohub,2013-01-26 02:02:00,
2013-01-25 21:07:00,18.0,9.5,29.97,South,180,0.0,0.0,69,0.00,,,0.00,meteohub,2013-01-26 02:07:00,
2013-01-25 21:12:00,18.0,9.9,29.97,South,180,0.0,7.0,70,0.00,,,0.00,meteohub,2013-01-26 02:12:00,
2013-01-25 21:17:00,18.0,9.9,29.97,South,180,0.0,7.0,70,0.00,,,0.00,meteohub,2013-01-26 02:17:00,
2013-01-25 21:22:00,18.0,9.9,29.97,South,180,0.0,7.0,70,0.00,,,0.00,meteohub,2013-01-26 02:22:00,
2013-01-25 21:27:00,18.0,9.9,29.97,SW,225,0.0,0.0,70,0.00,,,0.00,meteohub,2013-01-26 02:27:00,
2013-01-25 21:32:00,18.0,9.9,29.97,South,180,0.0,0.0,70,0.00,,,0.00,meteohub,2013-01-26 02:32:00,
2013-01-25 21:38:00,18.0,9.9,29.97,South,180,0.0,0.0,70,0.00,,,0.00,meteohub,2013-01-26 02:38:00,
2013-01-25 21:43:00,18.0,9.9,29.98,South,180,0.0,0.0,70,0.00,,,0.00,meteohub,2013-01-26 02:43:00,
2013-01-25 21:48:00,18.0,9.9,29.98,NE,45,0.0,0.0,70,0.00,,,0.00,meteohub,2013-01-26 02:48:00,
2013-01-25 21:53:00,18.0,9.9,29.97,South,180,0.0,0.0,70,0.00,,,0.00,meteohub,2013-01-26 02:53:00,
2013-01-25 21:58:00,18.0,9.9,29.98,South,180,0.0,0.0,70,0.00,,,0.00,meteohub,2013-01-26 02:58:00,
2013-01-25 22:03:00,18.0,9.9,29.98,South,180,0.0,0.0,70,0.00,,,0.00,meteohub,2013-01-26 03:03:00,
2013-01-25 22:08:00,18.0,10.2,29.98,South,180,0.0,0.0,71,0.00,,,0.00,meteohub,2013-01-26 03:08:00,
2013-01-25 22:13:00,18.1,10.4,29.98,South,180,0.0,0.0,71,0.00,,,0.00,meteohub,2013-01-26 03:13:00,
2013-01-25 22:18:00,18.1,10.4,29.98,South,180,0.0,0.0,71,0.00,,,0.00,meteohub,2013-01-26 03:18:00,
2013-01-25 22:24:00,18.1,10.4,29.98,SW,225,0.0,0.0,71,0.00,,,0.00,meteohub,2013-01-26 03:24:00,
2013-01-25 22:29:00,18.1,10.4,29.98,South,180,0.0,0.0,71,0.00,,,0.00,meteohub,2013-01-26 03:29:00,
2013-01-25 22:34:00,18.1,10.4,29.98,East,90,0.0,0.0,71,0.00,,,0.00,meteohub,2013-01-26 03:34:00,
2013-01-25 22:39:00,18.1,10.4,29.97,NE,45,0.0,0.0,71,0.00,,,0.00,meteohub,2013-01-26 03:39:00,
2013-01-25 22:44:00,18.1,10.4,29.97,NE,45,0.0,0.0,71,0.00,,,0.00,meteohub,2013-01-26 03:44:00,
2013-01-25 22:49:00,18.1,10.4,29.97,South,180,0.0,0.0,71,0.00,,,0.00,meteohub,2013-01-26 03:49:00,
2013-01-25 22:54:00,18.1,10.4,29.97,SE,135,0.0,0.0,71,0.00,,,0.00,meteohub,2013-01-26 03:54:00,
2013-01-25 22:59:00,18.1,10.4,29.98,SE,135,0.0,0.0,71,0.00,,,0.00,meteohub,2013-01-26 03:59:00,
2013-01-25 23:05:00,18.1,10.4,29.98,SE,135,0.0,0.0,71,0.00,,,0.00,meteohub,2013-01-26 04:05:00,
2013-01-25 23:10:00,18.1,10.4,29.98,SE,135,0.0,0.0,71,0.00,,,0.00,meteohub,2013-01-26 04:10:00,
2013-01-25 23:15:00,18.1,10.4,29.98,SE,135,0.0,0.0,71,0.00,,,0.00,meteohub,2013-01-26 04:15:00,
2013-01-25 23:20:00,18.1,10.4,29.98,SW,225,0.0,0.0,71,0.00,,,0.00,meteohub,2013-01-26 04:20:00,
2013-01-25 23:25:00,18.1,10.4,29.98,East,90,0.0,0.0,71,0.00,,,0.00,meteohub,2013-01-26 04:25:00,
2013-01-25 23:30:00,18.1,10.4,29.98,South,180,0.0,0.0,71,0.00,,,0.00,meteohub,2013-01-26 04:30:00,
2013-01-25 23:35:00,18.1,10.4,29.98,South,180,0.0,0.0,71,0.00,,,0.00,meteohub,2013-01-26 04:35:00,
2013-01-25 23:40:00,18.0,10.2,29.98,SW,225,0.0,0.0,71,0.00,,,0.00,meteohub,2013-01-26 04:40:00,
2013-01-25 23:46:00,18.1,10.4,29.98,South,180,0.0,0.0,71,0.00,,,0.00,meteohub,2013-01-26 04:46:00,
2013-01-25 23:51:00,18.1,10.4,29.99,South,180,0.0,0.0,71,0.00,,,0.00,meteohub,2013-01-26 04:51:00,
2013-01-25 23:56:00,18.1,10.4,29.99,West,270,0.0,0.0,71,0.00,,,0.00,meteohub,2013-01-26 04:56:00,